2022-058C (52787 NORAD) Tracking and Keplerian Element Data

This shows tracking and keplerian element data for the satellite.

Feedback or suggestion? Click here.




ElementValue
Catalog52787
Name2022-058C
Epoch Orbit593
Epoch Day193.13855458
Epoch Year2022
RAAN74.6069
Inclination49.9929
Eccentricity0.0012713
Argument of Perigee81.8742
Mean Anonmoly278.3651
Mean Motion14.86662955
Decay Rate1.405E-05
L11 52787U 22058C 22193.13855458 .00001405 00000+0 18246-3 0 9995
L22 52787 49.9929 74.6069 0012713 81.8742 278.3651 14.86662955 5930

Live tracking and technical data element details for 2022-058C (NORAD 52787). 2022-058C can be tracked NOW for your location showing map with azimuth and elevation plus other details from your city location.

Track the satellite on the map from your city or location and see movement details for azimuth, elevation, latitude, longitude, range, height, and movement on the map or in text.







IsCatalogInMostPopularTable: catalog: 52787, numindb: 3
Update: records affected: 1



GetName: 52787 2022-058C

Hit Count: updated at: Sun, 14 Aug 2022 01:19:32 GMT